Simultaneous Nadir Overpasses (SNOs) Predictions

Prediction of SNOs between AQUA and NOAA-19 Satellite Orbit:

Table of predicted SNOs for the next 14.0 days since TLE Epoch: 7/2/2022
Index Date (AQUA) Time (AQUA) Lat,Lon (AQUA) SZA (AQUA ) Date (NOAA-19) Time (NOAA-19) Lat,Lon (NOAA-19) SZA (NOAA-19 ) Distance(km) Time Diff (sec)
1 07/02/2022 17:44:56 77.55,-102.26 55.10 07/02/2022 17:44:05 77.54,-102.11 55.10 3.79 51
2 07/02/2022 18:34:22 -77.58, 65.25 124.86 07/02/2022 18:35:01 -77.57, 65.28 124.89 1.79 39
3 07/04/2022 23:18:11 -77.50, -5.35 124.78 07/04/2022 23:16:58 -77.49, -5.51 124.75 3.84 73
4 07/05/2022 00:07:39 77.55, 162.08 55.29 07/05/2022 00:07:59 77.56, 162.09 55.30 1.71 20
5 07/07/2022 05:40:55 -77.54,-101.21 124.49 07/07/2022 05:40:52 -77.52,-101.24 124.50 2.08 3
6 07/09/2022 11:14:12 77.53, -4.46 55.76 07/09/2022 11:13:49 77.51, -4.47 55.75 2.09 23
7 07/09/2022 12:03:38 -77.55, 163.08 124.21 07/09/2022 12:04:46 -77.56, 163.02 124.22 1.45 68
8 07/11/2022 16:47:27 -77.49, 92.40 124.00 07/11/2022 16:46:42 -77.51, 92.38 123.97 2.26 45
9 07/11/2022 17:36:55 77.55,-100.21 56.08 07/11/2022 17:37:42 77.55,-100.15 56.07 1.63 47
10 07/13/2022 22:20:44 77.49,-170.93 56.33 07/13/2022 22:19:38 77.48,-170.92 56.34 1.65 66



Historial Predications of SNOs between AQUA and NOAA-19
